TOURFACTS.DK  
Stats and Facts from Tour de France.

Tour de France 2019 starts in 347 days
  Riders   Stages   Teams   Summits   Yearly  


 
Search by year

After 2018 - Stage 14:
 15000 starters.
  5163 different riders.
  639 teams.
  2246 stages.
  456 restdays.
  441957.60 km.
  5678 abandonnees.


Top 3
GC
Christopher Froome86:20:55
Rigoberto Urán86:21:49
Romain Bardet86:23:15
Climb
Warren Barguil169 pt.
Primoz Roglic80 pt.
Thomas De Gendt64 pt.
Sprint
Michael Matthews359 pt.
André Greipel234 pt.
Edvald Boasson Hagen220 pt.
Youth
Simon Yates86:27:09
Louis Meintjes86:29:15
Emanuel Buchmann86:54:16
Facts from Tour de France 2002
  |   Stages.  |   Stage winners.  |   Days in yellow  |   Average speed.  |   Route.  |   Teams.  |   All riders.  |   Rookies.  |  

  |   Withdrawls.  |   GC.  |   Polka  |   Green  |   White  |   Summits. (In tour)  |   Miscellaneous.  |  

Stage 9 on July 15th. 2002
         Owning:    Igor Gonzalez    
Pick a stage:  Pro 1 2 3 4 5 6 7 8 9 10 11 12 13 14 15 16 17 18 19 20
From: Lanester    To: LorientDist:52.00 km.

Average speed for all riders in stage:  46,094 km./hr.
    Place:Name:Team:Time:Km/h:
COLSantiago BoteroESPKelme-Costa Blanca01:02:18  +  00:00:00=50,080 
USALance ArmstrongUSAUS Postal Service01:02:29  +  00:00:11=49,933 
UKRSerhiy HoncharITAFassa Bortolo01:02:36  +  00:00:18=49,840 
4 ESPIgor GonzalezESPO.N.C.E.-Eroski01:02:37  +  00:00:19=49,827 
5 HUNLaszlo BodrogiITAMapei-Quick Step01:02:43  +  00:00:25=49,748 
6 URSRaimondas RumsasITALampre-Daikin01:02:43  +  00:00:25=49,748 
7 MLTDavid MillarFRACofidis Credit Par Telephone01:03:08  +  00:00:50=49,419 
8 ITADario FrigoITATacconi Sport01:03:52  +  00:01:34=48,852 
9 ITAAndrea PeronDNKTeam CSC-Tiscali01:03:52  +  00:01:34=48,852 
10 ESPJoseba BelokiESPO.N.C.E.-Eroski01:03:56  +  00:01:38=48,801 
11 URSViatcheslav EkimovUSAUS Postal Service01:03:59  +  00:01:41=48,763 
12 USATyler HamiltonDNKTeam CSC-Tiscali01:04:14  +  00:01:56=48,573 
13 BELMarc WautersNLDRabobank01:04:26  +  00:02:08=48,422 
14 ESPAntonio TaulerESPKelme-Costa Blanca01:04:32  +  00:02:14=48,347 
15 USAFloyd LandisUSAUS Postal Service01:04:39  +  00:02:21=48,260 
16 URSRaivis BelohvosciksITALampre-Daikin01:04:39  +  00:02:21=48,260 
17 SUIBeat ZbergNLDRabobank01:04:41  +  00:02:23=48,235 
18 COLVictor Hugo PenaUSAUS Postal Service01:04:52  +  00:02:34=48,099 
19 USALevi LeipheimerNLDRabobank01:04:53  +  00:02:35=48,086 
20 PORJosé AzevedoESPO.N.C.E.-Eroski01:04:54  +  00:02:36=48,074 
21 ESPFrancisco ManceboESPibanesto.com01:04:59  +  00:02:41=48,012 
22 ITAIvan BassoITAFassa Bortolo01:05:01  +  00:02:43=47,988 
23 AUSBradley McGeeFRAfdjeux.com01:05:02  +  00:02:44=47,975 
24 ESPPedro HorrilloITAMapei-Quick Step01:05:03  +  00:02:45=47,963 
25 ESPMarcos SerranoESPO.N.C.E.-Eroski01:05:06  +  00:02:48=47,926 
26 ESPHaimar ZubeldiaESPEuskaltel - Euskadi01:05:08  +  00:02:50=47,902 
27 POLDariusz BaranowskiESPibanesto.com01:05:12  +  00:02:54=47,853 
28 GERJörg JakscheESPO.N.C.E.-Eroski01:05:14  +  00:02:56=47,828 
29 ESPÓscar SevillaESPKelme-Costa Blanca01:05:15  +  00:02:57=47,816 
30 FRAAnthony MorinFRACredit Agricole01:05:17  +  00:02:59=47,792 
31 ESPAbraham OlanoESPO.N.C.E.-Eroski01:05:22  +  00:03:04=47,731 
32 GERGrischa NiermannNLDRabobank01:05:25  +  00:03:07=47,694 
33 ESPIñigo CuestaFRACofidis Credit Par Telephone01:05:32  +  00:03:14=47,609 
34 CZEPavel PadrnosUSAUS Postal Service01:05:32  +  00:03:14=47,609 
35 RUSDenis MenchovESPibanesto.com01:05:33  +  00:03:15=47,597 
36 FRAJacky DurandFRAfdjeux.com01:05:36  +  00:03:18=47,561 
37 BELNico MattanFRACofidis Credit Par Telephone01:05:39  +  00:03:21=47,525 
38 ITAMarzio BruseghinESPibanesto.com01:05:46  +  00:03:28=47,440 
39 ESPIsidro NozalESPO.N.C.E.-Eroski01:05:47  +  00:03:29=47,428 
40 BELLudo DierckxsensITALampre-Daikin01:05:48  +  00:03:30=47,416 
41 FRASandy CasarFRAfdjeux.com01:05:49  +  00:03:31=47,404 
42 DENNicki SørensenDNKTeam CSC-Tiscali01:05:51  +  00:03:33=47,380 
43 FRALaurent JalabertDNKTeam CSC-Tiscali01:05:51  +  00:03:33=47,380 
44 ESPMikel PraderaESPO.N.C.E.-Eroski01:05:54  +  00:03:36=47,344 
45 AUSStuart O'GradyFRACredit Agricole01:05:58  +  00:03:40=47,297 
46 BELAxel MerckxBELDomo-Farm Frites01:05:58  +  00:03:40=47,297 
47 ITAMassimiliano LelliFRACofidis Credit Par Telephone01:06:03  +  00:03:45=47,237 
48 MDARuslan IvanovITAAlessio01:06:11  +  00:03:53=47,142 
49 FRASylvain ChavanelFRABonjour01:06:11  +  00:03:53=47,142 
50 USABobby JulichUSATeam Telekom01:06:14  +  00:03:56=47,106 
51 FRALaurent BrochardFRAJean Delatour01:06:14  +  00:03:56=47,106 
52 ESPJosé Enrique GutierrezESPKelme-Costa Blanca01:06:15  +  00:03:57=47,094 
53 ESPDavid LatasaESPibanesto.com01:06:23  +  00:04:05=47,000 
54 GERDanilo HondoUSATeam Telekom01:06:35  +  00:04:17=46,859 
55 FRAEddy SeigneurFRAJean Delatour01:06:38  +  00:04:20=46,823 
56 MARRichard VirenqueBELDomo-Farm Frites01:06:41  +  00:04:23=46,788 
57 FRANicolas VogondyFRAfdjeux.com01:06:41  +  00:04:23=46,788 
58 POLPiotr WadeckiBELDomo-Farm Frites01:06:43  +  00:04:25=46,765 
59 SUILaurent DufauxITAAlessio01:06:45  +  00:04:27=46,742 
60 FRALaurent LefèvreFRAJean Delatour01:06:48  +  00:04:30=46,707 
61 UKRVolodymir GustovITAFassa Bortolo01:06:50  +  00:04:32=46,683 
62 FRAEmmanuel MagnienFRABonjour01:06:54  +  00:04:36=46,637 
63 BELPaul Van HyfteDNKTeam CSC-Tiscali01:06:54  +  00:04:36=46,637 
64 FRADavid MoncoutiéFRACofidis Credit Par Telephone01:06:55  +  00:04:37=46,625 
65 NEDMichael BoogerdNLDRabobank01:06:56  +  00:04:38=46,614 
66 FRAChristophe MoreauFRACredit Agricole01:06:58  +  00:04:40=46,590 
67 ESPSamuel SanchezESPEuskaltel - Euskadi01:06:58  +  00:04:40=46,590 
68 ESPCarlos SastreDNKTeam CSC-Tiscali01:06:58  +  00:04:40=46,590 
69 USAGeorge HincapieUSAUS Postal Service01:07:01  +  00:04:43=46,556 
70 NEDErik DekkerNLDRabobank01:07:02  +  00:04:44=46,544 
71 ITAMarco VeloITAFassa Bortolo01:07:03  +  00:04:45=46,532 
72 NEDBram de GrootNLDRabobank01:07:08  +  00:04:50=46,475 
73 NORThor HushovdFRACredit Agricole01:07:13  +  00:04:55=46,417 
74 FRAChristophe EdaleineFRAJean Delatour01:07:15  +  00:04:57=46,394 
75 BELMario AertsBELLotto-Adecco01:07:17  +  00:04:59=46,371 
76 ESPJosé RubieraUSAUS Postal Service01:07:20  +  00:05:02=46,337 
77 ITAAlessandro CortinovisITALampre-Daikin01:07:23  +  00:05:05=46,302 
78 ITAGianluca BortolamiITATacconi Sport01:07:25  +  00:05:07=46,279 
79 SLOMartin HvastijaITAAlessio01:07:25  +  00:05:07=46,279 
80 ESPIñigo ChaurreauFRAAg2r Prevoyance01:07:27  +  00:05:09=46,256 
81 ITAWladimir BelliITAFassa Bortolo01:07:30  +  00:05:12=46,222 
82 DENMichael SandstødDNKTeam CSC-Tiscali01:07:32  +  00:05:14=46,199 
83 ITAIvan GottiITAAlessio01:07:36  +  00:05:18=46,154 
84 BELSerge BaguetBELLotto-Adecco01:07:39  +  00:05:21=46,120 
85 KAZAndrei KivilevFRACofidis Credit Par Telephone01:07:40  +  00:05:22=46,108 
86 FRAFranck RenierFRABonjour01:07:43  +  00:05:25=46,074 
87 FRAStéphane BergesFRAAg2r Prevoyance01:07:49  +  00:05:31=46,006 
88 RUSGuennadi MikhailovBELLotto-Adecco01:07:50  +  00:05:32=45,995 
89 AUTPeter LuttenbergerITATacconi Sport01:07:56  +  00:05:38=45,927 
90 FRAStéphane GoubertFRAJean Delatour01:07:56  +  00:05:38=45,927 
91 ITACristian MoreniITAAlessio01:07:57  +  00:05:39=45,916 
92 FRAWalter BénéteauFRABonjour01:07:57  +  00:05:39=45,916 
93 DENJakob PiilDNKTeam CSC-Tiscali01:08:00  +  00:05:42=45,882 
94 ITAGiuseppe GueriniUSATeam Telekom01:08:04  +  00:05:46=45,837 
95 ITAMassimo ApollonioITATacconi Sport01:08:04  +  00:05:46=45,837 
96 ESPUnai OsaESPibanesto.com01:08:07  +  00:05:49=45,804 
97 GERRolf AldagUSATeam Telekom01:08:08  +  00:05:50=45,793 
98 GERSteffen WesemannUSATeam Telekom01:08:11  +  00:05:53=45,759 
99 CZETomas KonecnyBELDomo-Farm Frites01:08:11  +  00:05:53=45,759 
100 NEDServais KnavenBELDomo-Farm Frites01:08:13  +  00:05:55=45,737 
101 ESPFrancisco CabelloESPKelme-Costa Blanca01:08:14  +  00:05:56=45,725 
102 ESPGorka ArrizabalagaESPEuskaltel - Euskadi01:08:16  +  00:05:58=45,703 
103 AUTGerhard TrampuschITAMapei-Quick Step01:08:18  +  00:06:00=45,681 
104 ITAAndrea TafiITAMapei-Quick Step01:08:19  +  00:06:01=45,670 
105 ESPRoberto HerasUSAUS Postal Service01:08:21  +  00:06:03=45,647 
106 USAKevin LivingstonUSATeam Telekom01:08:21  +  00:06:03=45,647 
107 RSARobert HunterITAMapei-Quick Step01:08:21  +  00:06:03=45,647 
108 AUSBaden CookeFRAfdjeux.com01:08:23  +  00:06:05=45,625 
109 BELFabien De WaeleITAMapei-Quick Step01:08:24  +  00:06:06=45,614 
110 FRAJean-Cyril RobinFRAfdjeux.com01:08:29  +  00:06:11=45,559 
111 BELChristophe BrandtBELLotto-Adecco01:08:31  +  00:06:13=45,536 
112 RUSSerguei IvanovITAFassa Bortolo01:08:32  +  00:06:14=45,525 
113 ESPSantiago PérezESPKelme-Costa Blanca01:08:32  +  00:06:14=45,525 
114 SVKJán SvoradaITALampre-Daikin01:08:37  +  00:06:19=45,470 
115 FRAAnthony LangellaFRACredit Agricole01:08:40  +  00:06:22=45,437 
116 LUXBenoit JoachimUSAUS Postal Service01:08:42  +  00:06:24=45,415 
117 FRAJérôme BernardFRAJean Delatour01:08:43  +  00:06:25=45,404 
118 ITANicola LodaITAFassa Bortolo01:08:53  +  00:06:35=45,294 
119 FRAJérôme PineauFRABonjour01:08:54  +  00:06:36=45,283 
120 FRAFranck BouyerFRABonjour01:08:56  +  00:06:38=45,261 
121 GERJens VoigtFRACredit Agricole01:08:56  +  00:06:38=45,261 
122 FRADamien NazonFRABonjour01:08:57  +  00:06:39=45,250 
123 ESPRoberto LaisekaESPEuskaltel - Euskadi01:08:58  +  00:06:40=45,239 
124 FRAFrédéric GuesdonFRAfdjeux.com01:09:01  +  00:06:43=45,206 
125 FRALudovic TurpinFRAAg2r Prevoyance01:09:01  +  00:06:43=45,206 
126 ESPDaniel AtienzaFRACofidis Credit Par Telephone01:09:02  +  00:06:44=45,196 
127 ITAEnrico CassaniBELDomo-Farm Frites01:09:02  +  00:06:44=45,196 
128 FRAStéphane AugeFRAJean Delatour01:09:04  +  00:06:46=45,174 
129 ITAOscar PozziITAFassa Bortolo01:09:06  +  00:06:48=45,152 
130 ESPMiguel Angel MartinezITAMapei-Quick Step01:09:06  +  00:06:48=45,152 
131 FRAAndy FlickingerFRAAg2r Prevoyance01:09:16  +  00:06:58=45,043 
132 ITAMarco SerpelliniITALampre-Daikin01:09:16  +  00:06:58=45,043 
133 RUSAlexandre BotcharovFRAAg2r Prevoyance01:09:17  +  00:06:59=45,032 
134 BRALuciano PagliariniITALampre-Daikin01:09:18  +  00:07:00=45,022 
135 FRACédric VasseurFRACofidis Credit Par Telephone01:09:21  +  00:07:03=44,989 
136 GERUdo BöltsUSATeam Telekom01:09:21  +  00:07:03=44,989 
137 FRAChristophe MenginFRAfdjeux.com01:09:22  +  00:07:04=44,978 
138 BELThierry MarichalBELLotto-Adecco01:09:23  +  00:07:05=44,968 
139 ESPBingen FernandezFRACofidis Credit Par Telephone01:09:26  +  00:07:08=44,935 
140 COLFred RodriguezBELDomo-Farm Frites01:09:26  +  00:07:08=44,935 
141 ESPÁlvaro GonzalezESPO.N.C.E.-Eroski01:09:26  +  00:07:08=44,935 
142 VENUnai EtxebarriaESPEuskaltel - Euskadi01:09:28  +  00:07:10=44,914 
143 URSJaan KirsipuuFRAAg2r Prevoyance01:09:28  +  00:07:10=44,914 
144 DDRErik ZabelUSATeam Telekom01:09:30  +  00:07:12=44,892 
145 ESPIban MayoESPEuskaltel - Euskadi01:09:32  +  00:07:14=44,871 
146 ESPJosé GomezESPKelme-Costa Blanca01:09:34  +  00:07:16=44,849 
147 ITADavide CasarottoITAAlessio01:09:35  +  00:07:17=44,838 
148 ITAMauro RadaelliITATacconi Sport01:09:36  +  00:07:18=44,828 
149 AUSRobbie McEwenBELLotto-Adecco01:09:36  +  00:07:18=44,828 
150 BELHans De ClercqBELLotto-Adecco01:09:37  +  00:07:19=44,817 
151 ITAAndrea BrognaraITAAlessio01:09:37  +  00:07:19=44,817 
152 SUIRubens BertogliatiITALampre-Daikin01:09:38  +  00:07:20=44,806 
153 FRAPatrice HalgandFRAJean Delatour01:09:55  +  00:07:37=44,625 
154 ITAMassimo DonatiITATacconi Sport01:09:56  +  00:07:38=44,614 
155 ITAStefano CasagrandaITAAlessio01:10:02  +  00:07:44=44,550 
156 FRAJimmy CasperFRAfdjeux.com01:10:02  +  00:07:44=44,550 
157 ESPJosé GarciaESPibanesto.com01:10:06  +  00:07:48=44,508 
158 ESPConstantino ZaballaESPKelme-Costa Blanca01:10:08  +  00:07:50=44,487 
159 ESPJosé Angel VidalESPKelme-Costa Blanca01:10:10  +  00:07:52=44,466 
160 ESPDavid EtxebarriaESPEuskaltel - Euskadi01:10:12  +  00:07:54=44,444 
161 NEDAddy EngelsNLDRabobank01:10:16  +  00:07:58=44,402 
162 ESPJavier PascualESPibanesto.com01:10:16  +  00:07:58=44,402 
163 NEDLeon van BonBELDomo-Farm Frites01:10:18  +  00:08:00=44,381 
164 ITAEddy MazzoleniITATacconi Sport01:10:18  +  00:08:00=44,381 
165 BELDave BruylandtsBELDomo-Farm Frites01:10:22  +  00:08:04=44,339 
166 ESPIgor Flores GalarzaESPEuskaltel - Euskadi01:10:26  +  00:08:08=44,297 
167 ITAGian Matteo FagniniUSATeam Telekom01:10:28  +  00:08:10=44,276 
168 FRAChristophe AgnoluttoFRAAg2r Prevoyance01:10:33  +  00:08:15=44,224 
169 ESPSantiago BlancoESPibanesto.com01:10:42  +  00:08:24=44,130 
170 FRACyril DesselFRAJean Delatour01:10:43  +  00:08:25=44,120 
171 URSArvis PiziksDNKTeam CSC-Tiscali01:10:50  +  00:08:32=44,047 
172 SLOAndrei HauptmanITATacconi Sport01:10:53  +  00:08:35=44,016 
173 USAJonathan VaughtersFRACredit Agricole01:10:57  +  00:08:39=43,975 
174 ITAFabio BaldatoITAFassa Bortolo01:11:04  +  00:08:46=43,902 
175 FRAChristophe OriolFRAAg2r Prevoyance01:11:16  +  00:08:58=43,779 
176 FRAFrançois SimonFRABonjour01:11:18  +  00:09:00=43,759 
177 FRAFrédéric BessyFRACredit Agricole01:11:20  +  00:09:02=43,738 
178 SUIThierry LoderFRAAg2r Prevoyance01:11:22  +  00:09:04=43,718 
179 ITAPaolo BossoniITATacconi Sport01:11:28  +  00:09:10=43,657 
180 FRASébastien HinaultFRACredit Agricole01:11:45  +  00:09:27=43,484 
181 ESPGorka GonzalezESPEuskaltel - Euskadi01:11:56  +  00:09:38=43,373 
182 NEDKarsten KroonNLDRabobank01:12:06  +  00:09:48=43,273 


Todays birthdays.

1887  Donald Kirkham
1889  Théodore Abada
1911  Guillaume Chavard
1912  Jean Fontenay
1913  Fabien Galateau
1930  Roger Hassenforder
1930  Richard Van Genechten
1936  Philippe Gaudrillet
1937  Joseph Novales
1954  Hans-Peter Jakst
1960  Manuel Ramos
1973  David Etxebarria
1974  Rik Verbrugghe
1976  Jörg Jaksche




Visits: